• In Hungary
  • List of Countries
  • For 7 days
  • Water Temperature
  • Satellite Maps
  • Weather Map
  • News
  • Weather Widgets
  • user-avatar
    Login

    Hourly Weather Holoy

    Today, 24 June, Sunday

    Time Temperature Precipitation Wind Pressure Humidity
    00:00 +5°C° 0 mm 2 mps 603 mmHg 89%
    01:00 +5°C° 0 mm 2 mps 603 mmHg 89%
    02:00 +5°C° 0 mm 2 mps 603 mmHg 89%
    03:00 +4°C° 0 mm 2 mps 603 mmHg 89%
    04:00 +4°C° 0 mm 2 mps 603 mmHg 89%
    05:00 +6°C° 0 mm 2 mps 603 mmHg 80%
    06:00 +10°C° 0 mm 1 mps 604 mmHg 72%
    07:00 +13°C° 0 mm 1 mps 605 mmHg 60%
    08:00 +13°C° 0.2 mm 1 mps 605 mmHg 57%
    09:00 +14°C° 0.2 mm 2 mps 605 mmHg 53%
    10:00 +14°C° 0.2 mm 3 mps 605 mmHg 50%
    11:00 +16°C° 0.1 mm 3 mps 605 mmHg 47%
    12:00 +16°C° 0.1 mm 3 mps 605 mmHg 44%
    13:00 +17°C° 0 mm 3 mps 605 mmHg 42%
    14:00 +17°C° 0.1 mm 3 mps 605 mmHg 42%
    15:00 +16°C° 0.1 mm 3 mps 605 mmHg 43%
    16:00 +16°C° 0.1 mm 3 mps 605 mmHg 44%
    17:00 +15°C° 0.1 mm 2 mps 604 mmHg 49%
    18:00 +14°C° 0.1 mm 2 mps 604 mmHg 54%
    19:00 +13°C° 0 mm 2 mps 603 mmHg 63%
    20:00 +10°C° 0.1 mm 2 mps 603 mmHg 70%
    21:00 +9°C° 0.1 mm 2 mps 603 mmHg 77%
    22:00 +8°C° 0.1 mm 1 mps 603 mmHg 85%
    23:00 +7°C° 0.2 mm 2 mps 602 mmHg 86%

    Tomorrow, 25 June, Monday

    Time Temperature Precipitation Wind Pressure Humidity
    00:00 +6°C° 0.2 mm 2 mps 602 mmHg 87%
    01:00 +6°C° 0.2 mm 2 mps 602 mmHg 88%
    02:00 +6°C° 0.1 mm 2 mps 602 mmHg 89%
    03:00 +5°C° 0.1 mm 2 mps 602 mmHg 89%
    04:00 +5°C° 0.1 mm 2 mps 602 mmHg 90%
    05:00 +7°C° 0.1 mm 2 mps 603 mmHg 83%
    06:00 +9°C° 0.1 mm 2 mps 604 mmHg 77%
    07:00 +12°C° 0.1 mm 2 mps 604 mmHg 70%
    08:00 +11°C° 0.4 mm 3 mps 605 mmHg 68%
    09:00 +12°C° 0.4 mm 3 mps 605 mmHg 65%
    10:00 +13°C° 0.4 mm 4 mps 605 mmHg 63%
    11:00 +14°C° 0.5 mm 4 mps 605 mmHg 60%
    12:00 +14°C° 0.5 mm 4 mps 605 mmHg 58%
    13:00 +15°C° 0.5 mm 4 mps 605 mmHg 55%
    14:00 +14°C° 0.5 mm 4 mps 605 mmHg 57%
    15:00 +14°C° 0.5 mm 4 mps 605 mmHg 59%
    16:00 +14°C° 0.5 mm 4 mps 605 mmHg 61%
    17:00 +13°C° 0.4 mm 4 mps 605 mmHg 66%
    18:00 +12°C° 0.4 mm 3 mps 605 mmHg 70%
    19:00 +11°C° 0.4 mm 3 mps 605 mmHg 75%
    20:00 +10°C° 0.2 mm 2 mps 605 mmHg 80%
    21:00 +8°C° 0.2 mm 2 mps 604 mmHg 85%
    22:00 +7°C° 0.2 mm 2 mps 604 mmHg 90%
    23:00 +7°C° 0.2 mm 2 mps 604 mmHg 90%

    Day after tomorrow, 26 June, Tuesday

    Time Temperature Precipitation Wind Pressure Humidity
    00:00 +7°C° 0.2 mm 2 mps 604 mmHg 90%
    01:00 +7°C° 0.2 mm 2 mps 604 mmHg 90%
    02:00 +7°C° 0.1 mm 2 mps 604 mmHg 90%
    03:00 +6°C° 0.1 mm 2 mps 604 mmHg 90%
    04:00 +6°C° 0.1 mm 2 mps 604 mmHg 90%
    05:00 +8°C° 0 mm 2 mps 605 mmHg 84%
    06:00 +9°C° 0 mm 2 mps 605 mmHg 79%
    07:00 +12°C° 0 mm 2 mps 606 mmHg 73%
    08:00 +13°C° 0.1 mm 3 mps 607 mmHg 65%
    09:00 +14°C° 0.1 mm 4 mps 607 mmHg 58%
    10:00 +17°C° 0.1 mm 4 mps 608 mmHg 50%
    11:00 +17°C° 0.1 mm 4 mps 608 mmHg 47%
    12:00 +18°C° 0.1 mm 4 mps 608 mmHg 43%
    13:00 +19°C° 0.1 mm 4 mps 609 mmHg 40%
    14:00 +19°C° 0 mm 4 mps 609 mmHg 40%
    15:00 +19°C° 0 mm 4 mps 609 mmHg 40%
    16:00 +19°C° 0 mm 4 mps 609 mmHg 39%
    17:00 +18°C° 0 mm 3 mps 608 mmHg 45%
    18:00 +17°C° 0 mm 2 mps 608 mmHg 50%
    19:00 +16°C° 0 mm 2 mps 608 mmHg 55%
    20:00 +14°C° 0 mm 2 mps 607 mmHg 61%
    21:00 +12°C° 0 mm 2 mps 607 mmHg 67%
    22:00 +9°C° 0 mm 2 mps 607 mmHg 73%
    23:00 +9°C° 0 mm 2 mps 607 mmHg 74%

    27 June, Wednesday

    Time Temperature Precipitation Wind Pressure Humidity
    00:00 +8°C° 0 mm 2 mps 607 mmHg 74%
    01:00 +8°C° 0 mm 2 mps 607 mmHg 75%
    02:00 +8°C° 0 mm 2 mps 607 mmHg 75%
    03:00 +7°C° 0 mm 2 mps 607 mmHg 75%
    04:00 +7°C° 0 mm 2 mps 607 mmHg 75%
    05:00 +10°C° 0 mm 2 mps 608 mmHg 66%
    06:00 +13°C° 0 mm 1 mps 609 mmHg 58%
    07:00 +16°C° 0 mm 1 mps 610 mmHg 50%
    08:00 +19°C° 0 mm 1 mps 610 mmHg 44%
    09:00 +21°C° 0 mm 1 mps 611 mmHg 38%
    10:00 +23°C° 0 mm 1 mps 611 mmHg 31%
    11:00 +24°C° 0 mm 1 mps 611 mmHg 29%
    12:00 +25°C° 0 mm 1 mps 611 mmHg 27%
    13:00 +26°C° 0 mm 2 mps 611 mmHg 26%
    14:00 +25°C° 0 mm 2 mps 611 mmHg 26%
    15:00 +25°C° 0 mm 2 mps 611 mmHg 26%
    16:00 +25°C° 0 mm 2 mps 610 mmHg 27%
    17:00 +23°C° 0 mm 2 mps 610 mmHg 34%
    18:00 +21°C° 0 mm 1 mps 609 mmHg 41%
    19:00 +20°C° 0 mm 1 mps 608 mmHg 48%
    20:00 +18°C° 0 mm 1 mps 608 mmHg 52%
    21:00 +15°C° 0 mm 1 mps 607 mmHg 56%
    22:00 +12°C° 0 mm 2 mps 607 mmHg 60%
    23:00 +12°C° 0 mm 2 mps 607 mmHg 60%

    28 June, Thursday

    Time Temperature Precipitation Wind Pressure Humidity
    00:00 +12°C° 0 mm 2 mps 606 mmHg 59%
    01:00 +10°C° 0 mm 2 mps 606 mmHg 59%
    02:00 +10°C° 0 mm 2 mps 606 mmHg 58%
    03:00 +10°C° 0 mm 2 mps 606 mmHg 58%
    04:00 +10°C° 0 mm 2 mps 606 mmHg 57%
    05:00 +13°C° 0 mm 1 mps 606 mmHg 52%
    06:00 +16°C° 0 mm 1 mps 607 mmHg 47%
    07:00 +19°C° 0 mm 1 mps 608 mmHg 41%
    08:00 +21°C° 0 mm 1 mps 608 mmHg 37%
    09:00 +23°C° 0 mm 1 mps 609 mmHg 33%
    10:00 +25°C° 0 mm 1 mps 609 mmHg 28%
    11:00 +26°C° 0 mm 2 mps 609 mmHg 27%
    12:00 +27°C° 0 mm 2 mps 608 mmHg 26%
    13:00 +27°C° 0 mm 2 mps 608 mmHg 25%
    14:00 +27°C° 0 mm 2 mps 608 mmHg 26%
    15:00 +26°C° 0 mm 2 mps 607 mmHg 28%
    16:00 +26°C° 0 mm 2 mps 607 mmHg 29%
    17:00 +24°C° 0 mm 2 mps 606 mmHg 35%
    18:00 +23°C° 0 mm 1 mps 605 mmHg 41%
    19:00 +21°C° 0 mm 1 mps 605 mmHg 47%
    20:00 +19°C° 0.3 mm 1 mps 604 mmHg 56%
    21:00 +15°C° 0.3 mm 1 mps 603 mmHg 64%
    22:00 +13°C° 0.3 mm 1 mps 602 mmHg 73%
    23:00 +12°C° 0.2 mm 1 mps 602 mmHg 74%

    29 June, Friday

    Time Temperature Precipitation Wind Pressure Humidity
    00:00 +12°C° 0.2 mm 2 mps 602 mmHg 75%
    01:00 +10°C° 0.2 mm 2 mps 602 mmHg 77%
    02:00 +10°C° 0 mm 2 mps 601 mmHg 77%
    03:00 +10°C° 0 mm 2 mps 601 mmHg 76%
    04:00 +10°C° 0 mm 2 mps 601 mmHg 76%
    05:00 +13°C° 0 mm 1 mps 602 mmHg 69%
    06:00 +16°C° 0 mm 1 mps 603 mmHg 62%
    07:00 +17°C° 0 mm 0 mps 604 mmHg 54%
    08:00 +21°C° 0 mm 1 mps 604 mmHg 47%
    09:00 +23°C° 0 mm 1 mps 605 mmHg 41%
    10:00 +24°C° 0 mm 2 mps 605 mmHg 34%
    11:00 +25°C° 0 mm 2 mps 605 mmHg 33%
    12:00 +25°C° 0 mm 2 mps 605 mmHg 32%
    13:00 +25°C° 0 mm 3 mps 605 mmHg 31%
    14:00 +25°C° 0 mm 3 mps 604 mmHg 33%
    15:00 +24°C° 0 mm 3 mps 604 mmHg 36%
    16:00 +24°C° 0 mm 3 mps 604 mmHg 38%
    17:00 +21°C° 0.5 mm 3 mps 603 mmHg 48%
    18:00 +19°C° 0.5 mm 2 mps 603 mmHg 58%
    19:00 +18°C° 0.5 mm 1 mps 602 mmHg 68%
    20:00 +16°C° 0.5 mm 1 mps 602 mmHg 72%
    21:00 +14°C° 0.5 mm 1 mps 601 mmHg 76%
    22:00 +13°C° 0.5 mm 1 mps 601 mmHg 79%
    23:00 +13°C° 0.1 mm 1 mps 601 mmHg 81%
    Show more